niederrhein-spotter.de
Homepage News Airport Weeze Airportfestival Planespotting Fotos Forum Sonstiges
 
Planespotting
· Fotopositionen
· Flugkarten
· Flugwetter
· Funkfrequenzen
 
Flugwetter
Roh-METAR
EDLV 202250Z VRB03KT 6000 NSC 05/05 Q1026

‹bersetzung